Location: Newark
(13.4667°N, 16.6000°W)
Time: 05:12:35
(UTC+00:00)

N. Korean satellite - Visible Passes

Search period start: 20 September 2019 00:00
Search period end: 30 September 2019 00:00
Orbit: 455 x 509 km, 97.2° (Epoch: 18 September)

Date Brightness Start Highest point End Pass type
(mag) Time Alt. Az. Time Alt. Az. Time Alt. Az.
21 Sep 9.2 06:17:34 10° NE 06:20:25 24° E 06:23:18 10° SSE visible
22 Sep 10.0 19:20:45 10° SW 19:22:58 16° W 19:25:11 10° WNW visible
25 Sep 9.6 06:10:22 10° NE 06:12:54 19° E 06:15:27 10° SSE visible
28 Sep 8.3 06:27:18 10° NNE 06:30:34 37° E 06:33:52 10° S visible
29 Sep 9.9 06:03:17 10° ENE 06:05:21 15° E 06:07:26 10° SE visible
29 Sep 10.7 19:32:48 10° WSW 19:33:08 10° W 19:33:27 10° W visible
